Tracking 19570 objects as of 22-Feb-2019
HD Live streaming from Space Station
objects crossing your sky now

THORAD DELTA 1 DEB

Track THORAD DELTA 1 DEB now!
10-day predictions


NORAD ID: 8179
Int'l Code: 1974-089AV
Perigee: 1,461.3 km
Apogee: 1,619.6 km
Inclination: 101.5 °
Period: 116.7 minutes
Semi major axis: 7911 km
RCS: 0.1242 m2 (medium)
Launch date: November 15, 1974
Source: United States (US)
Launch site: AIR FORCE WESTERN TEST RANGE (AFWTR)

Note: This is SATELLITE DEBRIS
aabbcc
Your satellite tracking list
Your tracking list is empty




NASA's NSSDC Master Catalog

Two Line Element Set (TLE):
1  8179U 74089AV  19052.70466412 -.00000088  00000-0 -36982-3 0  9999
2  8179 101.5362 312.6491 0100040 240.9402 131.8437 12.33735495993636
Source of the keplerian elements: AFSPC